logo tempoitalia

Diretta Meteo Habib Bourguiba, Tunisialunedì 31 agosto ore 06:00

Mappa
Sereno 28 °C Nuvoloso 24 Ore: T.min 28 T.max 33
Ponente Nord Km/h 5.5 Punto di rugiada: 26 °C Umidità: 88% Visibilità: 8 Km
Il sole sorge alle: 05:48 Il sole tramonta alle: 18:46
31 Agosto 2026 06:00 tempo osservato: Nuvoloso Nuvoloso 28 88 1015 vento: Nord N 5.5
31 Agosto 2026 05:30 tempo osservato: Sereno Sereno 28 88 1015 vento: Nord N 5.5
31 Agosto 2026 05:00 tempo osservato: Sereno Sereno 29 89 1015 vento: Nord N 0
31 Agosto 2026 04:30 tempo osservato: Sereno Sereno 29 89 1015 vento: Nord N 3.7
31 Agosto 2026 04:00 tempo osservato: Sereno Sereno 29 89 1015 vento: Nord N 1.8
31 Agosto 2026 03:30 tempo osservato: Sereno Sereno 29 89 1015 vento: Nord N 1.8
31 Agosto 2026 03:00 tempo osservato: Sereno Sereno 30 84 1015 vento: Nord N 3.7
31 Agosto 2026 02:30 tempo osservato: Sereno Sereno 30 84 1015 vento: Nord N 3.7
31 Agosto 2026 02:00 tempo osservato: Sereno Sereno 30 84 1015 vento: Nord N 9.3
31 Agosto 2026 01:30 tempo osservato: Sereno Sereno 30 84 1015 vento: Nord N 5.5
31 Agosto 2026 01:00 tempo osservato: Sereno Sereno 30 84 1014 vento: Nord S/SE 16.7
31 Agosto 2026 00:30 tempo osservato: Sereno Sereno 30 84 1014 vento: Nord S/SE 18.5
31 Agosto 2026 00:00 tempo osservato: Nuvoloso Nuvoloso 31 79 1015 vento: Nord S/SE 18.5
30 Agosto 2026 23:30 tempo osservato: Nuvoloso Nuvoloso 31 79 1016 vento: Nord S/SE 14.8
30 Agosto 2026 23:00 tempo osservato: Nuvoloso Nuvoloso 31 79 1016 vento: Nord S/SE 11.1
30 Agosto 2026 22:30 tempo osservato: Nuvoloso Nuvoloso 31 79 1017 vento: Nord SE 11.1
30 Agosto 2026 22:00 tempo osservato: Nuvoloso Nuvoloso 30 84 1017 vento: Nord N 5.5
30 Agosto 2026 21:30 tempo osservato: Nuvoloso Nuvoloso 30 84 1017 vento: Nord NE 11.1
30 Agosto 2026 21:00 tempo osservato: Nuvoloso Nuvoloso 31 84 1018 vento: Nord N 14.8
30 Agosto 2026 20:30 tempo osservato: Nuvoloso Nuvoloso 31 79 1018 vento: Nord N/NO 16.7
30 Agosto 2026 20:00 tempo osservato: Nuvoloso Nuvoloso 31 74 1016 vento: Nord E 16.7
30 Agosto 2026 19:30 tempo osservato: Nuvoloso Nuvoloso 31 74 1015 vento: Nord E 18.5
30 Agosto 2026 19:00 tempo osservato: Nuvoloso Nuvoloso 31 79 1015 vento: Nord E 24
30 Agosto 2026 18:30 tempo osservato: Sereno Sereno 31 74 1015 vento: Nord E/SE 22.2
30 Agosto 2026 18:00 tempo osservato: Sereno Sereno 32 70 1014 vento: Nord E/SE 29.6
30 Agosto 2026 17:30 tempo osservato: Sereno Sereno 32 74 1014 vento: Nord E/SE 29.6
30 Agosto 2026 17:00 tempo osservato: Sereno Sereno 33 70 1014 vento: Nord E 29.6
30 Agosto 2026 16:30 tempo osservato: Sereno Sereno 33 66 1014 vento: Nord E 27.8
30 Agosto 2026 16:00 tempo osservato: Sereno Sereno 33 66 1015 vento: Nord E/SE 25.9
30 Agosto 2026 15:30 tempo osservato: Sereno Sereno 33 70 1015 vento: Nord E 24
30 Agosto 2026 15:00 tempo osservato: Sereno Sereno 33 75 1015 vento: Nord E 20.3
30 Agosto 2026 14:30 tempo osservato: Sereno Sereno 33 70 1015 vento: Nord E/NE 20.3
30 Agosto 2026 14:00 tempo osservato: Sereno Sereno 32 79 1015 vento: Nord E/NE 24
30 Agosto 2026 13:30 tempo osservato: Sereno Sereno 33 70 1016 vento: Nord NE 22.2
30 Agosto 2026 13:00 tempo osservato: Sereno Sereno 33 70 1016 vento: Nord NE 24
30 Agosto 2026 12:30 tempo osservato: Sereno Sereno 32 79 1016 vento: Nord NE 22.2
30 Agosto 2026 12:00 tempo osservato: Sereno Sereno 33 75 1016 vento: Nord NE 20.3
30 Agosto 2026 11:30 tempo osservato: Sereno Sereno 32 79 1016 vento: Nord NE 22.2
30 Agosto 2026 11:00 tempo osservato: Sereno Sereno 32 79 1016 vento: Nord NE 20.3
30 Agosto 2026 10:30 tempo osservato: Sereno Sereno 33 75 1016 vento: Nord E/NE 18.5
30 Agosto 2026 10:00 tempo osservato: Sereno Sereno 33 79 1016 vento: Nord NE 18.5
30 Agosto 2026 09:30 tempo osservato: Sereno Sereno 33 66 1016 vento: Nord NE 13
30 Agosto 2026 09:00 tempo osservato: Sereno Sereno 32 70 1016 vento: Nord N 7.4
30 Agosto 2026 08:30 tempo osservato: Sereno Sereno 32 62 1015 vento: Nord N 3.7
30 Agosto 2026 08:00 tempo osservato: Sereno Sereno 32 66 1015 vento: Nord N 3.7
30 Agosto 2026 07:30 tempo osservato: Sereno Sereno 30 58 1015 vento: Nord N 3.7
30 Agosto 2026 07:00 tempo osservato: Sereno Sereno 29 66 1015 vento: Nord N 0